Location: Unspecified
(0.0000°N, 0.0000°E)
Time: 07:07:33
(UTC+00:00)

TIANHUI 5D - Pass Details

Date: 16 August 2024
Orbit: 603 x 606 km, 97.8° (Epoch: 07 September)

Event Time Altitude Azimuth Distance (km) Brightness Sun altitude
Rises 18:35:22 0° 192° (SSW) 2,862 ? -7.6°
Reaches altitude 10° 18:37:55 10° 207° (SSW) 1,956 ? -8.2°
Maximum altitude 18:41:12 22° 258° (WSW) 1,333 ? -9.0°
Drops below altitude 10° 18:44:30 10° 309° (NW) 1,948 ? -9.8°
Sets 18:47:03 0° 325° (NW) 2,848 ? -10.4°
